Погода Имени Попова

Погода Имени Попова : погода сейчас, прогноз погоды и архив. Всё, что Вы хотите узнать о погоде Имени Попова!

Поиск расширенной информации на нашем сайте:

Другие новости

Новости СМИ2

Главная страница сайта

Новости сайта

03.07.2017

Напоминаем, что на нашем специализированном сайте Метеоцентр.Азия вы можете получить высокодетализированные автоматические прогнозы погоды по пунктам России, СНГ и мира в авиационном формате (включающие направление и скорость ветра, видимость, явления погоды, количество и форму облачности, нижнюю и верхнюю границу облачности).

Рекомендуем: Юридический перевод украинского паспорта http://www.english-perewod.ru.

Погода Имени Попова - сегодня

Время (UTC), дата Ветер
(°,м/с) 
Видим.   Явления Облачность Т
(°С)
Тd
(°С)
f(%) Тe
(°С)
Pmin
(гПа)
dP
(гПа)
Po
(мм)
O2
(г/м3)
Тmin Tmax R s Состояние
почвы
21 19.09.17 240 (ЮЗ) 9-11{12}  20000 м    10/10 420 м 
[Sc]
+2.5 +1.2 91 -1  1020.6  -1.8  765  305           
06 20.09.17 300 (СЗ) 20000 м  в посл. час дождь  10/10 450 м 
[Sc]
+3.7 +2.9 94 +1  1018  0.3  763  303           
09 20.09.17 020 (С) 6{10}  20000 м  в посл. час морось  10/10 540 м 
[Sc]
+1.8 +1 94 -1  1020.2  2.1  765  306           
12 20.09.17 350 (С) 7{10}  20000 м  {морось}  10/10 800 м 
[Sc]
+1.5 -1.5 80 -2  1021.8  1.7  766  307           
21 20.09.17 340 (С) 4{12}  20000 м  {ливн. осадки}  10/10 1110 м 
[Sc]
+0.8 -0.8 89 -2  1023.4  -0.1  767  308           
00 21.09.17 330 (СЗ) 8-10{12}  н/о    н/о 
+0.7 -2.9 77 -3  1024.1  0.7  768  309           
03 21.09.17 340 (С) 8-12{12}  20000 м  {ливн. осадки}  10/10 1110 м 
[Cu Sc]
+0.8 -2.6 78 -3  1024.6  0.4  768  309  -0.4    0.3     
06 21.09.17 340 (С) 8-10{13}  20000 м  {ливн. осадки}  9/9 630 м кучево-дожд. 
[Cb cap]
+0.5 -1.9 84 -4  1025.2  0.7  768  309           
09 21.09.17 330 (СЗ) 7{13}  20000 м  {ливн. осадки}  9/9 1000 м кучево-дожд. 
[Cb cap]
+1.2 -3 74 -2  1025.5  0.3  769  309           
12 21.09.17 310 (СЗ) 10-12{13}  20000 м  {ливн. осадки}  9/9 1080 м 
[Sc diur, vesp]
+1.4 -3.1 72 -3  1025.7  0.2  769  309           
15 21.09.17 300 (СЗ) 8-11{13}  20000 м    9/9 1080 м 
[Cu Sc]
+1.1 -3.6 71 -3  1025  -0.7  768  309    +1.4  0.1     
18 21.09.17 310 (СЗ) 8-10{12}  20000 м    10/10 1140 м 
[Cu Sc]
+1.3 -2.5 76 -3  1024.3  -0.7  768  308           
21 21.09.17 320 (СЗ) 6{11}  20000 м    8/8 1080 м 
[Sc]
+1.4 -4 67 -2  1024.5  0.2  768  308           
00 22.09.17 300 (СЗ) 7{10}  20000 м    10/10 1200 м 
[Sc]
+1.4 -3 72 -2  1024.2  -0.3  768  308           
03 22.09.17 310 (СЗ) 8{10}  20000 м    8/8 1140 м 
[Cu Sc]
+1.5 -3.6 69 -2  1024.3  0.1  768  308  +1         
06 22.09.17 300 (СЗ) 20000 м    8/6 1110 м средняя 
[Cu Sc|Ac trans]
+1.7 -0.9 83 -1  1024.7  0.4  768  308           
09 22.09.17 290 (З) 20000 м    1/1 300 м 
[Cu hum]
+2.9 -1 75 +1  1025.4  0.7  769  307           
12 22.09.17 290 (З) 20000 м  в посл. час ливневой снег  1/1 300 м 
[Sc]
+2.3 -1 79 1025.6  0.2  769  307           
15 22.09.17 250 (З) 20000 м    9/0 средняя, верхняя 
[Ac lent|Ci]
+0.9 +0.1 94 -1  1025.3  -0.4  768  309    +3.2  0.1     
18 22.09.17 220 (ЮЗ) 20000 м    8/0 средняя, верхняя 
[Ac As|Ci fib]
+1.3 +1.1 99 1024.5  -0.7  768  308           
21 22.09.17 220 (ЮЗ) 0500 м  туман  н/о 
+1.9 +1.9 100 -1  1023.2  -1.3  767  307           
00 23.09.17 210 (ЮЗ) 0500 м  туман  н/о 
+2 +2 100 1022.3  -0.9  766  306           
06 23.09.17 250 (З) 0200 м  туман{морось}  ?/?  
+2.7 +2.7 100 1020.9  -0.5  765  305           
09 23.09.17 260 (З) 0500 м  туман  ?/?  
+2.7 +2.7 100 +1  1021.4  0.4  766  305           
12 23.09.17 250 (З) 20000 м  {туман}  10/10 1350 м 
[Sc]
+2.8 +2.7 99 +1  1022.1  0.7  766  305           
Время (UTC), дата Ветер
(°,м/с) 
Видим.   Явления Облачность Т
(°С)
Тd
(°С)
f(%) Тe
(°С)
Pmin
(гПа)
dP
(гПа)
Po
(мм)
O2
(г/м3)
Тmin Tmax R s Состояние
почвы

Для получения пояснительной информации подведите курсор к названию столбца.

ПОГОДА Имени Попова - архив

Всё, что Вы хотите узнать о погоде Имени Попова - удобно и подробно!

Выберите нужную дату (начиная с 1 января 2015* года) и нажмите кнопку "Найти".
Будут отображены архивные сводки погоды по пункту Имени Попова, начиная с указанной даты.


Отображать данные в формате CSV (для использования в таблицах Excel)


Внимание! Наш архив погоды предназначен исключительно для личного некоммерческого использования в познавательных целях. Если Вам необходимы официальные справки о состоянии погоды (для производственных, юридических, коммерческих и т.п. целей), обращайтесь в органы Росгидромета.

*Примечание: данная дата относится к архиву по метеостанциям СССР (Россия, СНГ, Балтия).
Архив по метеостанциям Зарубежной Европы и Азии (кроме Китая) хранится 10 дней, по другим регионам земного шара (Китай, Африка, Америка, Австралия, Океания) - 1 день.

Имени Попова - район местоположения метеостанции


Название, широта, долгота, высота метеостанции:
Имени Попова 73.3°ш. 70.1°д. 7 м над ур. моря [Российская Федерация]

Дополнительная информация

В oтличие oт бoльшинства пoгoдных сайтoв мы публикуем пoдрoбную метеoинфoрмацию в детальнoм прoфессиoнальнoм фoрмате.

Характеристики температуры и влажнoсти вoздуха измеряются на высoте 2 м в тени вдали oт зданий и деревьев.
Скoрoсть ветра измеряется на высoте 10 м (на урoвне рoста челoвека скoрoсть ветра ниже в 1.5-2 раза). Если метеoстанция нахoдится в гoрoде или в лесу, тo скoрoсть ветра занижена на 2-4 м/с пo сравнению с oткрытым местoм. Скoрoсть ветра над акватoриями крупных рек и oзёр, а также на вершинах хoлмoв на 2-5 м/с выше, чем в oбычных услoвиях.
Атмoсфернoе давление в разных тoчках местнoсти мoжет значительнo oтличаться oт давления на метеoстанции, в зависимoсти oт услoвий рельефа (при пoдъёме на 10 м давление пoнижается примернo на 1 мм рт.ст.).